DW5316 Seano IT current weather conditions

sailwx.info

Wind from 247 at 1 knots gusting 2

Air temperature 20.0° C
Dewpoint 13.7° C

Last reported at 2019-Sep-16 22:01 UTC.
Time now 2019-Sep-16 22:27 UTC

Location: N 43°50' E 011°02'.
View on Google Maps.

See reports from other nearby stations

  
Tides and Currents Weather Stations Pressure Air Temp Water Temp Dewpoint Dewpoint Depression Visibility Wind Speed Wind Dir Waves Ship Positions
date/time (UTC)wind fromknots sea level pressurealtimeterstation pressurevisibilityair tempwater tempwave heightnotes
2019-Sep-16 22:06 247 0 gusting 1 20.0
2019-Sep-16 22:01 247 1 gusting 2 20.0
2019-Sep-16 21:56 247 1 gusting 2 20.0
2019-Sep-16 21:51 247 20.0
2019-Sep-16 21:36 247 0 gusting 1 20.6
2019-Sep-16 21:26 247 20.6
2019-Sep-16 21:21 247 0 gusting 1 21.1
2019-Sep-16 21:16 247 21.1
2019-Sep-16 21:11 247 0 gusting 2 21.1
2019-Sep-16 21:01 247 21.7
2019-Sep-16 20:51 247 0 gusting 2 21.7
2019-Sep-16 20:46 247 1 gusting 2 21.7
2019-Sep-16 20:41 247 0 gusting 1 22.2
2019-Sep-16 20:36 247 22.2
2019-Sep-16 20:31 247 22.2
2019-Sep-16 20:26 247 0 gusting 1 22.2
2019-Sep-16 20:21 247 0 gusting 2 22.8
2019-Sep-16 20:16 247 1 gusting 2 22.8
2019-Sep-16 20:11 247 1 gusting 2 22.8
2019-Sep-16 19:56 247 0 gusting 6 23.3
2019-Sep-16 19:46 304 0 gusting 2 23.3
2019-Sep-16 19:41 304 23.9
2019-Sep-16 19:31 304 1 gusting 2 23.9
2019-Sep-16 19:26 305 24.4
2019-Sep-16 19:21 305 0 gusting 2 24.4
2019-Sep-16 19:16 305 0 gusting 2 24.4
2019-Sep-16 19:11 305 1 gusting 6 24.4
2019-Sep-16 18:51 305 1 gusting 2 25.0
2019-Sep-16 18:46 305 0 gusting 2 25.6
2019-Sep-16 18:41 305 2 gusting 6 25.6
2019-Sep-16 18:31 305 26.1
2019-Sep-16 18:21 305 0 gusting 6 26.1
2019-Sep-16 18:16 302 2 gusting 7 26.7
2019-Sep-16 18:06 291 1 gusting 6 26.7
2019-Sep-16 17:51 242 2 gusting 5 26.7
2019-Sep-16 17:41 275 1 gusting 5 27.2
2019-Sep-16 17:36 275 0 gusting 6 27.2
2019-Sep-16 17:26 275 0 gusting 2 27.8
2019-Sep-16 17:21 275 1 gusting 6 27.8
2019-Sep-16 17:16 276 2 gusting 6 27.8
2019-Sep-16 17:11 263 1 gusting 2 27.8
2019-Sep-16 17:06 274 1 gusting 6 28.3
2019-Sep-16 17:01 275 2 gusting 6 28.3
2019-Sep-16 16:56 277 4 gusting 6 28.3
2019-Sep-16 16:51 275 5 gusting 11 28.3
2019-Sep-16 16:46 255 4 gusting 10 28.3
2019-Sep-16 16:41 280 1 gusting 6 28.3
2019-Sep-16 16:36 259 6 gusting 11 28.9
2019-Sep-16 16:26 270 6 gusting 11 28.9
2019-Sep-16 16:11 281 6 gusting 19 29.4
2019-Sep-16 16:06 249 8 gusting 12 29.4
2019-Sep-16 15:56 286 7 gusting 13 29.4
2019-Sep-16 15:46 260 6 gusting 15 30.0
2019-Sep-16 15:41 223 10 gusting 19 30.0
2019-Sep-16 15:36 232 6 gusting 13 30.0
2019-Sep-16 15:26 235 4 gusting 11 30.6
2019-Sep-16 15:11 231 6 gusting 10 31.1
2019-Sep-16 15:06 188 5 gusting 10 31.1
2019-Sep-16 14:56 280 6 gusting 12 31.1
2019-Sep-16 14:46 215 4 gusting 12 31.7
2019-Sep-16 14:41 230 6 gusting 10 31.7
2019-Sep-16 14:31 226 4 gusting 10 31.7
2019-Sep-16 14:26 200 5 gusting 13 31.1
2019-Sep-16 14:21 271 6 gusting 11 31.1
2019-Sep-16 14:16 295 5 gusting 13 31.1
2019-Sep-16 14:11 247 5 gusting 13 31.1
2019-Sep-16 14:06 266 4 gusting 10 31.1
2019-Sep-16 14:01 247 2 gusting 10 31.7
2019-Sep-16 13:56 275 5 gusting 10 31.7
2019-Sep-16 13:51 313 3 gusting 7 31.7
2019-Sep-16 13:46 257 4 gusting 8 31.7
2019-Sep-16 13:41 204 1 gusting 2 31.7
2019-Sep-16 13:36 224 4 gusting 8 31.7
2019-Sep-16 13:31 261 1 gusting 8 31.1
2019-Sep-16 13:21 276 1 gusting 6 31.1
2019-Sep-16 13:16 242 3 gusting 6 31.1
2019-Sep-16 13:11 290 5 gusting 10 30.6
2019-Sep-16 13:06 220 2 gusting 8 30.6
2019-Sep-16 12:56 265 8 gusting 12 30.6
2019-Sep-16 12:46 258 6 gusting 13 30.6
2019-Sep-16 12:36 277 6 gusting 13 30.0
2019-Sep-16 12:26 282 5 gusting 12 30.6
2019-Sep-16 12:16 288 4 gusting 17 30.0
2019-Sep-16 11:51 221 3 gusting 7 30.6
2019-Sep-16 11:46 266 4 gusting 7 30.6
2019-Sep-16 11:41 305 2 gusting 6 30.6
2019-Sep-16 11:36 325 0 gusting 4 30.6
2019-Sep-16 11:31 060 1 gusting 4 30.0
2019-Sep-16 11:26 132 0 gusting 2 30.0
2019-Sep-16 11:21 163 1 gusting 4 30.0
2019-Sep-16 11:11 321 2 gusting 6 29.4
2019-Sep-16 11:06 343 2 gusting 7 29.4
2019-Sep-16 11:01 302 4 gusting 6 29.4
2019-Sep-16 10:56 336 2 gusting 6 29.4
2019-Sep-16 10:51 333 1 gusting 2 29.4
2019-Sep-16 10:41 030 1 gusting 2 28.9
2019-Sep-16 10:36 030 1 gusting 2 28.9
2019-Sep-16 10:31 091 1 gusting 5 28.3
2019-Sep-16 10:26 092 1 gusting 7 27.8
2019-Sep-16 10:21 076 4 gusting 10 27.8
2019-Sep-16 10:16 094 2 gusting 11 27.2
2019-Sep-16 09:46 076 1 gusting 2 27.2
2019-Sep-16 09:36 082 2 gusting 7 26.1
2019-Sep-16 09:21 053 2 gusting 7 26.1
2019-Sep-16 09:01 031 2 gusting 4 25.6
2019-Sep-16 08:51 051 1 gusting 4 25.0
2019-Sep-16 08:46 038 1 gusting 2 25.0
2019-Sep-16 08:41 040 24.4
2019-Sep-16 08:36 040 1 gusting 2 24.4
2019-Sep-16 08:16 023 23.3
2019-Sep-16 08:11 023 0 gusting 2 22.8
2019-Sep-16 08:06 024 1 gusting 2 22.8
2019-Sep-16 08:01 048 1 gusting 6 22.8
2019-Sep-16 07:56 060 0 gusting 6 22.8
2019-Sep-16 07:51 069 1 gusting 5 22.2
2019-Sep-16 07:46 069 2 gusting 7 22.2
2019-Sep-16 07:36 120 1 gusting 2 22.2
2019-Sep-16 07:31 121 1 gusting 6 21.7
2019-Sep-16 07:26 218 0 gusting 2 21.7
2019-Sep-16 07:21 218 21.1
2019-Sep-16 07:16 218 21.1
2019-Sep-16 07:11 218 0 gusting 2 21.1
2019-Sep-16 07:06 218 20.6
2019-Sep-16 07:01 218 20.6
2019-Sep-16 06:51 218 20.0
2019-Sep-16 06:41 218 19.4
2019-Sep-16 06:31 218 18.3
2019-Sep-16 06:26 218 17.8
2019-Sep-16 06:21 218 17.2
2019-Sep-16 06:16 218 17.2
2019-Sep-16 06:11 218 17.2
2019-Sep-16 06:06 218 16.7
2019-Sep-16 06:01 218 16.7
2019-Sep-16 05:56 218 16.7
2019-Sep-16 05:51 218 16.1
2019-Sep-16 05:41 218 16.1
2019-Sep-16 05:36 218 0 gusting 0 16.1
2019-Sep-16 05:31 218 0 gusting 1 16.1
2019-Sep-16 05:26 218 0 gusting 1 16.1
2019-Sep-16 05:16 218 16.1
2019-Sep-16 05:06 218 16.1
2019-Sep-16 04:56 218 16.1
2019-Sep-16 04:51 218 16.1
2019-Sep-16 04:46 218 0 gusting 1 16.1
2019-Sep-16 04:41 218 1 gusting 2 16.1
2019-Sep-16 04:31 218 16.1
2019-Sep-16 04:26 218 16.7
2019-Sep-16 04:21 218 16.7
2019-Sep-16 04:16 218 16.7
2019-Sep-16 04:11 218 16.7
2019-Sep-16 04:06 218 16.7
2019-Sep-16 04:01 218 16.7
2019-Sep-16 03:56 218 16.7
2019-Sep-16 03:41 218 16.7
2019-Sep-16 03:36 218 16.7
2019-Sep-16 03:31 218 16.7
2019-Sep-16 03:26 218 16.7
2019-Sep-16 03:06 218 0 gusting 0 17.2
2019-Sep-16 02:56 218 17.2
2019-Sep-16 02:51 218 17.2
2019-Sep-16 02:41 218 17.2
2019-Sep-16 02:26 218 17.8
2019-Sep-16 02:16 218 17.8
2019-Sep-16 02:11 218 0 gusting 1 17.8
2019-Sep-16 02:06 218 0 gusting 1 17.8
2019-Sep-16 02:01 218 17.8
2019-Sep-16 01:56 218 17.8
2019-Sep-16 01:51 218 17.8
2019-Sep-16 01:36 218 17.8
2019-Sep-16 01:26 218 17.8
2019-Sep-16 01:21 218 17.8
2019-Sep-16 01:16 218 18.3
2019-Sep-16 01:06 218 0 gusting 1 18.3
2019-Sep-16 01:01 218 0 gusting 1 18.3
2019-Sep-16 00:56 218 1 gusting 2 18.3
2019-Sep-16 00:41 218 1 gusting 2 18.3
2019-Sep-16 00:31 218 18.3
2019-Sep-16 00:26 218 0 gusting 2 18.9
2019-Sep-16 00:21 218 1 gusting 5 18.9
2019-Sep-16 00:16 218 2 gusting 4 18.9
2019-Sep-16 00:06 218 1 gusting 2 18.9
2019-Sep-15 23:51 218 18.9
2019-Sep-15 23:46 218 18.9
2019-Sep-15 23:41 218 18.9
2019-Sep-15 23:26 218 19.4
2019-Sep-15 23:21 218 0 gusting 1 19.4
2019-Sep-15 23:16 218 19.4
2019-Sep-15 22:56 218 19.4
2019-Sep-15 22:41 218 20.0
2019-Sep-15 22:36 218 20.0
2019-Sep-15 22:31 218 20.0
2019-Sep-15 22:26 218 20.0
2019-Sep-15 22:21 218 0 gusting 4 20.0
2019-Sep-15 22:16 218 20.6
2019-Sep-15 22:11 218 20.6
2019-Sep-15 22:06 218 20.6
2019-Sep-15 21:56 218 20.6
2019-Sep-15 21:46 218 20.6
2019-Sep-15 21:41 218 0 gusting 2 21.1
2019-Sep-15 21:36 218 21.1
2019-Sep-15 21:26 218 0 gusting 2 21.1
2019-Sep-15 21:21 218 0 gusting 2 21.1
2019-Sep-15 21:11 218 21.1
2019-Sep-15 21:06 218 1 gusting 2 21.1
2019-Sep-15 20:51 218 2 gusting 5 21.7
2019-Sep-15 20:46 218 0 gusting 1 21.7
2019-Sep-15 20:41 218 0 gusting 1 22.2
2019-Sep-15 20:26 218 0 gusting 1 22.2
2019-Sep-15 20:01 218 0 gusting 1 22.8
2019-Sep-15 19:56 218 0 gusting 1 23.3
2019-Sep-15 19:51 218 0 gusting 2 23.3
2019-Sep-15 19:46 218 23.3
2019-Sep-15 19:36 218 23.3
2019-Sep-15 19:31 218 23.3
2019-Sep-15 19:21 218 23.9
2019-Sep-15 19:11 218 23.9
2019-Sep-15 19:06 218 24.4
2019-Sep-15 18:56 218 24.4
2019-Sep-15 18:51 218 0 gusting 5 24.4
2019-Sep-15 18:41 218 0 gusting 5 25.0
2019-Sep-15 18:36 218 2 gusting 5 25.6
2019-Sep-15 18:31 218 3 gusting 5 25.6
2019-Sep-15 18:26 218 2 gusting 5 26.1
2019-Sep-15 18:11 218 26.7
2019-Sep-15 18:06 218 26.7
2019-Sep-15 18:01 218 26.7
2019-Sep-15 17:56 218 27.2
2019-Sep-15 17:51 218 27.2
2019-Sep-15 17:36 218 0 gusting 6 27.2
2019-Sep-15 17:31 216 0 gusting 2 27.8
2019-Sep-15 17:26 214 0 gusting 2 27.8
2019-Sep-15 17:21 214 0 gusting 2 27.8
2019-Sep-15 17:11 214 27.8
2019-Sep-15 17:01 214 1 gusting 5 28.3
2019-Sep-15 16:56 214 1 gusting 7 28.3
2019-Sep-15 16:51 212 1 gusting 5 28.3
2019-Sep-15 16:46 211 0 gusting 2 28.3
2019-Sep-15 16:41 211 0 gusting 2 28.3
2019-Sep-15 16:36 211 2 gusting 5 28.9
2019-Sep-15 16:26 210 1 gusting 5 28.9
2019-Sep-15 16:21 209 1 gusting 5 28.9
2019-Sep-15 16:11 208 0 gusting 6 28.9
2019-Sep-15 16:06 213 0 gusting 4 28.9
2019-Sep-15 16:01 213 1 gusting 6 29.4
2019-Sep-15 15:56 214 1 gusting 6 29.4
2019-Sep-15 15:41 204 2 gusting 7 29.4
2019-Sep-15 15:31 211 4 gusting 8 29.4
2019-Sep-15 15:26 218 3 gusting 6 30.0
2019-Sep-15 15:21 216 5 gusting 8 30.0
2019-Sep-15 15:11 176 4 gusting 7 30.6
2019-Sep-15 15:01 176 3 gusting 7 30.6
2019-Sep-15 14:56 204 4 gusting 6 30.6
2019-Sep-15 14:51 202 3 gusting 6 30.6
2019-Sep-15 14:46 211 4 gusting 10 31.1
2019-Sep-15 14:36 229 4 gusting 10 31.1
2019-Sep-15 14:31 218 4 gusting 7 31.1
2019-Sep-15 14:26 236 31.1
2019-Sep-15 14:21 237 4 gusting 14 31.1
2019-Sep-15 14:16 281 3 gusting 13 31.1
2019-Sep-15 14:11 254 5 gusting 8 31.1
2019-Sep-15 14:06 261 5 gusting 7 31.7
2019-Sep-15 13:46 167 2 gusting 10 31.7
2019-Sep-15 13:41 210 6 gusting 10 31.7
2019-Sep-15 13:36 202 3 gusting 10 31.7
2019-Sep-15 13:31 201 6 gusting 11 31.7
2019-Sep-15 13:11 319 1 gusting 2 31.7
2019-Sep-15 13:01 190 0 gusting 6 31.7
2019-Sep-15 12:41 153 3 gusting 6 31.7
2019-Sep-15 12:31 188 1 gusting 2 31.1
2019-Sep-15 12:26 192 2 gusting 4 31.1
2019-Sep-15 12:21 296 2 gusting 6 31.1
2019-Sep-15 12:16 316 2 gusting 7 31.1
2019-Sep-15 12:06 296 0 gusting 2 31.1
2019-Sep-15 12:01 296 1 gusting 4 31.1
2019-Sep-15 11:56 302 3 gusting 6 31.1
2019-Sep-15 11:51 165 1 gusting 4 31.1
2019-Sep-15 11:46 133 2 gusting 6 30.6
2019-Sep-15 11:41 117 1 gusting 2 30.6
2019-Sep-15 11:36 117 0 gusting 6 30.0
2019-Sep-15 11:31 089 1 gusting 6 30.0
2019-Sep-15 11:21 090 2 gusting 6 30.6
2019-Sep-15 11:16 132 0 gusting 2 30.6
2019-Sep-15 11:11 160 0 gusting 2 30.6
2019-Sep-15 11:06 161 0 gusting 6 30.6
2019-Sep-15 11:01 163 2 gusting 4 30.0
2019-Sep-15 10:51 054 0 gusting 4 30.0
2019-Sep-15 10:46 072 1 gusting 5 30.0
2019-Sep-15 10:41 121 1 gusting 6 30.0
2019-Sep-15 10:36 123 2 gusting 6 30.0
2019-Sep-15 10:31 117 0 gusting 6 29.4
2019-Sep-15 10:26 116 1 gusting 6 29.4
2019-Sep-15 10:21 300 0 gusting 2 28.9
2019-Sep-15 10:16 303 0 gusting 1 28.9
2019-Sep-15 10:06 275 0 gusting 1 28.9
2019-Sep-15 10:01 312 0 gusting 2 28.3
2019-Sep-15 09:51 217 1 gusting 2 28.3
2019-Sep-15 09:41 343 27.8
2019-Sep-15 09:36 309 1 gusting 4 27.8
2019-Sep-15 09:31 254 1 gusting 2 27.2
2019-Sep-15 09:26 199 0 gusting 1 26.7
2019-Sep-15 09:21 199 1 gusting 5 26.7
2019-Sep-15 09:16 131 1 gusting 7 26.7
2019-Sep-15 09:06 092 1 gusting 7 26.1
2019-Sep-15 09:01 094 4 gusting 8 26.1
2019-Sep-15 08:56 139 1 gusting 2 26.1
2019-Sep-15 08:51 137 1 gusting 5 26.1
2019-Sep-15 08:46 085 1 gusting 2 25.6
2019-Sep-15 08:41 080 1 gusting 6 25.6
2019-Sep-15 08:31 101 2 gusting 6 25.6
2019-Sep-15 08:16 102 1 gusting 6 25.0
2019-Sep-15 08:11 096 2 gusting 7 25.0
2019-Sep-15 08:06 109 3 gusting 8 24.4
2019-Sep-15 08:01 099 1 gusting 6 24.4
2019-Sep-15 07:56 133 4 gusting 12 23.9
2019-Sep-15 07:51 116 5 gusting 10 23.9
2019-Sep-15 07:46 094 2 gusting 5 23.9
2019-Sep-15 07:36 056 1 gusting 5 23.3
2019-Sep-15 07:31 046 1 gusting 7 23.3
2019-Sep-15 07:21 171 0 gusting 1 22.2
2019-Sep-15 07:16 171 1 gusting 4 21.7
2019-Sep-15 07:11 172 21.1
2019-Sep-15 07:06 172 21.1
2019-Sep-15 07:01 172 20.6
2019-Sep-15 06:56 172 20.0
2019-Sep-15 06:46 172 19.4
2019-Sep-15 06:41 172 18.9
2019-Sep-15 06:36 172 18.3
2019-Sep-15 06:26 172 18.3
2019-Sep-15 06:21 172 17.8
2019-Sep-15 06:16 172 17.8
2019-Sep-15 06:11 172 17.8
2019-Sep-15 06:06 172 0 gusting 4 17.8
2019-Sep-15 06:01 172 17.2
2019-Sep-15 05:56 172 17.2
2019-Sep-15 05:51 172 0 gusting 1 17.2
2019-Sep-15 05:46 172 16.7
2019-Sep-15 05:41 172 16.7
2019-Sep-15 05:36 172 1 gusting 4 16.7
2019-Sep-15 05:31 172 16.7
2019-Sep-15 05:26 172 16.7
2019-Sep-15 05:16 172 1 gusting 2 16.7
2019-Sep-15 05:11 172 17.2
2019-Sep-15 04:56 173 17.2
2019-Sep-15 04:46 173 0 gusting 2 17.2
2019-Sep-15 04:41 173 0 gusting 1 17.2
2019-Sep-15 04:21 173 1 gusting 2 17.8
2019-Sep-15 04:16 173 0 gusting 1 17.8
2019-Sep-15 04:11 173 17.8
2019-Sep-15 04:06 173 17.8
2019-Sep-15 04:01 173 0 gusting 1 17.8
2019-Sep-15 03:56 173 18.3
2019-Sep-15 03:36 167 0 gusting 2 18.3
2019-Sep-15 03:31 167 18.3
2019-Sep-15 03:26 167 18.3
2019-Sep-15 03:16 167 18.3
2019-Sep-15 03:11 167 1 gusting 2 18.3
2019-Sep-15 03:06 167 2 gusting 4 18.3
2019-Sep-15 03:01 167 2 gusting 4 18.3
2019-Sep-15 02:51 166 0 gusting 2 18.3
2019-Sep-15 02:46 166 1 gusting 2 18.9
2019-Sep-15 02:41 166 18.9
2019-Sep-15 02:36 166 18.9
2019-Sep-15 02:31 166 2 gusting 4 18.9
2019-Sep-15 02:26 166 0 gusting 2 18.9
2019-Sep-15 02:21 166 0 gusting 2 19.4
2019-Sep-15 02:11 166 0 gusting 2 19.4
2019-Sep-15 02:06 166 0 gusting 2 19.4
2019-Sep-15 01:56 166 2 gusting 5 19.4
2019-Sep-15 01:51 165 1 gusting 4 20.0
2019-Sep-15 01:41 157 1 gusting 4 20.6
2019-Sep-15 01:36 155 1 gusting 4 20.6
2019-Sep-15 01:31 155 0 gusting 1 20.6
2019-Sep-15 01:26 155 21.1
2019-Sep-15 01:16 155 21.1
2019-Sep-15 01:11 155 1 gusting 2 21.7
2019-Sep-15 01:06 143 1 gusting 2 21.7
2019-Sep-15 01:01 124 1 gusting 4 21.7
2019-Sep-15 00:56 178 2 gusting 4 21.7
2019-Sep-15 00:51 184 0 gusting 2 22.2
2019-Sep-15 00:36 159 2 gusting 6 23.3
2019-Sep-15 00:11 099 4 gusting 6 23.9
2019-Sep-15 00:06 075 2 gusting 6 23.9
2019-Sep-15 00:01 057 1 gusting 8 24.4
2019-Sep-14 23:56 038 4 gusting 8 23.9
2019-Sep-14 23:51 070 5 gusting 11 23.9
2019-Sep-14 23:46 088 3 gusting 6 23.9
2019-Sep-14 23:41 086 2 gusting 6 23.9
2019-Sep-14 23:31 081 2 gusting 5 23.9
2019-Sep-14 23:26 055 4 gusting 8 23.9
2019-Sep-14 23:21 028 2 gusting 6 23.9
2019-Sep-14 23:16 047 1 gusting 6 23.9
2019-Sep-14 23:11 059 1 gusting 4 24.4
2019-Sep-14 23:06 059 1 gusting 5 24.4
2019-Sep-14 22:56 039 2 gusting 6 24.4
2019-Sep-14 22:51 016 6 gusting 8 24.4
2019-Sep-14 22:46 031 4 gusting 7 24.4
2019-Sep-14 22:41 035 4 gusting 7 24.4
2019-Sep-14 22:36 040 4 gusting 8 24.4
2019-Sep-14 22:31 054 4 gusting 10 24.4
2019-Sep-14 22:26 058 5 gusting 8 23.9
2019-Sep-14 22:21 061 3 gusting 5 23.9
2019-Sep-14 22:16 083 3 gusting 6 23.9
2019-Sep-14 22:06 086 4 gusting 10 24.4
2019-Sep-14 22:01 079 6 gusting 10 24.4